Stockton, CA

7:39 AM PST on December 07, 2016 (GMT -0800)
Stockton Metro

Weather History for KSCK - September, 2013

Change the Weather History Date:

Saturday, September 14, 2013

  Actual Average Record
Temperature  
Mean Temperature 73 °F -  
Max Temperature 87 °F 89 °F 104 °F (1971)
Min Temperature 58 °F 57 °F 48 °F (1980)
Degree Days  
Heating Degree Days 0 0  
Month to date heating degree days 0 0  
Since 1 July heating degree days 0 0  
Cooling Degree Days 8 8  
Month to date cooling degree days 156 122  
Year to date cooling degree days 1325 1166  
Growing Degree Days 22 (Base 50)    
Moisture  
Dew Point 53 °F    
Average Humidity 58    
Maximum Humidity 80    
Minimum Humidity 35    
Precipitation  
Precipitation 0.00 in 0.01 in 0.17 in (2009)
Month to date precipitation 0.01 0.08  
Year to date precipitation 2.89 9.12  
Since 1 July precipitation 0.01  
Snow  
Snow 0.00 in - - ()
Month to date snowfall 0.0  
Since 1 July snowfall 0.0  
Since 1 September snowfall 0.0  
Snow Depth -    
Sea Level Pressure  
Sea Level Pressure 29.73 in    
Wind  
Wind Speed 6 mph (West)    
Max Wind Speed 14 mph    
Max Gust Speed 28 mph    
Visibility 10 miles    
Events      
T = Trace of Precipitation, MM = Missing Value Source: NWS Daily Summary

Daily Weather History Graph

Daily Weather History Graph

Search for Another Location

Airport or City:

Trip Planner

Search our weather history database for the weather conditions in past years. The results will help you decide how hot, cold, wet, or windy it might be!

Date:

Astronomy

Sep. 14, 2013 Rise Set
Actual Time 6:46 AM PDT 7:13 PM PDT
Civil Twilight 6:19 AM PDT 7:40 PM PDT
Nautical Twilight 5:48 AM PDT 8:11 PM PDT
Astronomical Twilight 5:16 AM PDT 8:42 PM PDT
Moon 3:55 PM PDT (9/14) 1:27 AM PDT (9/14)
Length of Visible Light 13h 20m
Length of Day
12h 27m
Waxing Gibbous, 73% of the Moon is Illuminated
Sep 14
Waxing Gibbous
Sep 19
Full
Sep 26
Last Quarter
Oct 4
New
Oct 11
First Quarter

Hourly Weather History & Observations

Time (PDT) Temp. Heat Index Dew Point Humidity Pressure Visibility Wind Dir Wind Speed Gust Speed Precip Events Conditions
12:55 AM 66.0 °F - 50.0 °F 56% 29.72 in 10.0 mi Calm Calm - N/A   Clear
1:55 AM 64.0 °F - 51.1 °F 63% 29.72 in 10.0 mi Calm Calm - N/A   Clear
2:55 AM 62.1 °F - 52.0 °F 70% 29.73 in 10.0 mi West 3.5 mph - N/A   Clear
3:55 AM 61.0 °F - 53.1 °F 75% 29.73 in 10.0 mi WNW 9.2 mph - N/A   Clear
4:55 AM 61.0 °F - 52.0 °F 72% 29.74 in 10.0 mi West 10.4 mph - N/A   Clear
5:55 AM 60.1 °F - 53.1 °F 78% 29.75 in 10.0 mi West 10.4 mph - N/A   Clear
6:55 AM 59.0 °F - 54.0 °F 83% 29.75 in 10.0 mi WNW 5.8 mph - N/A   Clear
7:55 AM 62.1 °F - 54.0 °F 75% 29.77 in 10.0 mi WNW 8.1 mph - N/A   Clear
8:55 AM 66.9 °F - 54.0 °F 63% 29.78 in 10.0 mi West 9.2 mph - N/A   Clear
9:55 AM 70.0 °F - 54.0 °F 57% 29.78 in 10.0 mi West 9.2 mph - N/A   Clear
10:55 AM 73.0 °F - 55.0 °F 53% 29.78 in 9.0 mi WSW 4.6 mph - N/A   Clear
11:55 AM 77.0 °F - 55.0 °F 47% 29.77 in 9.0 mi West 8.1 mph - N/A   Clear
12:55 PM 80.1 °F 80.2 °F 55.9 °F 43% 29.75 in 9.0 mi WNW 8.1 mph - N/A   Clear
1:55 PM 82.9 °F 82.1 °F 55.9 °F 39% 29.73 in 8.0 mi West 10.4 mph - N/A   Clear
2:55 PM 84.9 °F 83.7 °F 55.9 °F 37% 29.70 in 8.0 mi WNW 10.4 mph 16.1 mph N/A   Clear
3:55 PM 86.0 °F 84.7 °F 55.9 °F 36% 29.69 in 9.0 mi West 12.7 mph 17.3 mph N/A   Clear
4:55 PM 84.9 °F 83.7 °F 55.9 °F 37% 29.68 in 9.0 mi West 11.5 mph - N/A   Clear
5:55 PM 82.9 °F 81.9 °F 54.0 °F 37% 29.68 in 10.0 mi West 11.5 mph - N/A   Clear
6:55 PM 77.0 °F - 53.1 °F 43% 29.68 in 10.0 mi West 9.2 mph - N/A   Clear
7:55 PM 71.1 °F - 53.1 °F 53% 29.70 in 10.0 mi West 12.7 mph - N/A   Clear
8:55 PM 66.9 °F - 52.0 °F 59% 29.71 in 10.0 mi West 11.5 mph - N/A   Clear
9:55 PM 64.9 °F - 51.1 °F 61% 29.72 in 10.0 mi West 8.1 mph - N/A   Clear
10:55 PM 64.0 °F - 51.1 °F 63% 29.72 in 10.0 mi WNW 4.6 mph - N/A   Clear
11:55 PM 63.0 °F - 52.0 °F 67% 29.73 in 10.0 mi WNW 9.2 mph - N/A   Clear